DW7673 Weather Reports


Display with metric or nautical units.
time (UTC)temp
F
wind
direction
speed
MPH
gust
MPH
rain 1hr
in
rain 24hr
in
rain mn
in
humidity
%
barometer
mb
20181018181804 76 132 1.0 3.0 0.00 0.00 0.00 38 1017.5
20181018181304 76 73 2.0 6.0 0.00 0.00 0.00 38 1017.5
20181018180803 76 105 0.0 3.0 0.00 0.00 0.00 40 1017.5
20181018180305 76 68 1.0 3.0 0.00 0.00 0.00 39 1017.6
20181018175804 76 331 1.0 5.0 0.00 0.00 0.00 38 1017.6
20181018175304 75 136 1.0 3.0 0.00 0.00 0.00 40 1017.7
20181018174803 75 108 1.0 3.0 0.00 0.00 0.00 40 1017.6
20181018174304 74 117 1.0 5.0 0.00 0.00 0.00 41 1017.7
20181018173803 74 4 1.0 3.0 0.00 0.00 0.00 41 1017.6
20181018173304 74 2 1.0 5.0 0.00 0.00 0.00 41 1017.7
20181018172804 74 347 2.0 3.0 0.00 0.00 0.00 40 1017.7
20181018172304 74 328 1.0 3.0 0.00 0.00 0.00 41 1017.8
20181018171804 74 26 0.0 2.0 0.00 0.00 0.00 42 1017.8
20181018171304 74 121 0.0 1.0 0.00 0.00 0.00 42 1017.9
20181018170803 73 122 0.0 2.0 0.00 0.00 0.00 43 1017.9
20181018170304 73 335 1.0 3.0 0.00 0.00 0.00 43 1017.9
20181018165804 72 9 0.0 2.0 0.00 0.00 0.00 44 1017.9
20181018165303 72 328 1.0 3.0 0.00 0.00 0.00 44 1018.0
20181018164804 72 344 0.0 3.0 0.00 0.00 0.00 44 1018.0
20181018164304 72 330 0.0 3.0 0.00 0.00 0.00 45 1018.1
20181018163804 71 349 2.0 3.0 0.00 0.00 0.00 45 1018.2
20181018163304 71 355 1.0 3.0 0.00 0.00 0.00 45 1018.2
20181018162804 71 13 1.0 5.0 0.00 0.00 0.00 46 1018.2
20181018162304 71 351 1.0 3.0 0.00 0.00 0.00 47 1018.3
20181018161804 70 354 1.0 5.0 0.00 0.00 0.00 47 1018.3
20181018161304 70 323 1.0 3.0 0.00 0.00 0.00 48 1018.3
20181018160804 70 9 1.0 3.0 0.00 0.00 0.00 48 1018.3
20181018160304 69 69 0.0 3.0 0.00 0.00 0.00 49 1018.3
20181018155804 69 342 1.0 3.0 0.00 0.00 0.00 50 1018.3
20181018155304 69 344 2.0 5.0 0.00 0.00 0.00 50 1018.3
20181018154804 69 58 1.0 3.0 0.00 0.00 0.00 50 1018.3
20181018154304 68 19 1.0 3.0 0.00 0.00 0.00 50 1018.2
20181018153804 68 59 0.0 2.0 0.00 0.00 0.00 51 1018.2
20181018153304 68 10 1.0 3.0 0.00 0.00 0.00 52 1018.3
20181018152804 67 10 1.0 3.0 0.00 0.00 0.00 52 1018.2
20181018152303 67 352 1.0 2.0 0.00 0.00 0.00 52 1018.2
20181018151804 67 1 1.0 3.0 0.00 0.00 0.00 52 1018.2
20181018151304 66 20 0.0 2.0 0.00 0.00 0.00 53 1018.2
20181018150805 66 321 0.0 3.0 0.00 0.00 0.00 54 1018.1
20181018150304 66 346 1.0 5.0 0.00 0.00 0.00 53 1018.1
20181018145804 65 340 2.0 5.0 0.00 0.00 0.00 54 1018.1
20181018145304 65 23 1.0 5.0 0.00 0.00 0.00 55 1018.0
20181018144804 64 15 1.0 3.0 0.00 0.00 0.00 56 1017.9
20181018144305 64 10 2.0 5.0 0.00 0.00 0.00 56 1017.9
20181018143804 64 351 0.0 3.0 0.00 0.00 0.00 57 1017.8
20181018143305 64 4 1.0 3.0 0.00 0.00 0.00 56 1017.7
20181018142804 63 328 2.0 5.0 0.00 0.00 0.00 57 1017.6
20181018142304 63 326 1.0 3.0 0.00 0.00 0.00 57 1017.6
20181018141804 63 336 1.0 3.0 0.00 0.00 0.00 57 1017.6
20181018141304 63 3 1.0 3.0 0.00 0.00 0.00 57 1017.5
20181018140804 63 337 1.0 3.0 0.00 0.00 0.00 58 1017.5
20181018140304 63 343 1.0 3.0 0.00 0.00 0.00 58 1017.5
20181018135804 62 358 1.0 3.0 0.00 0.00 0.00 57 1017.5
20181018135304 62 349 1.0 3.0 0.00 0.00 0.00 58 1017.4
20181018134804 62 344 1.0 2.0 0.00 0.00 0.00 58 1017.4
20181018134304 62 346 0.0 2.0 0.00 0.00 0.00 57 1017.4
20181018133804 62 342 1.0 3.0 0.00 0.00 0.00 57 1017.3
20181018133304 62 347 1.0 3.0 0.00 0.00 0.00 57 1017.3
20181018132804 62 346 0.0 3.0 0.00 0.00 0.00 57 1017.3
20181018132304 62 331 0.0 1.0 0.00 0.00 0.00 57 1017.2
20181018131804 62 331 0.0 2.0 0.00 0.00 0.00 57 1017.3
20181018131304 62 351 0.0 3.0 0.00 0.00 0.00 56 1017.2
20181018130804 62 4 1.0 2.0 0.00 0.00 0.00 56 1017.1
20181018130304 62 328 1.0 3.0 0.00 0.00 0.00 56 1017.1
20181018125804 62 337 1.0 3.0 0.00 0.00 0.00 56 1017.0
20181018125305 62 348 1.0 3.0 0.00 0.00 0.00 56 1017.0
20181018124804 62 344 1.0 2.0 0.00 0.00 0.00 56 1017.0
20181018124306 62 355 0.0 3.0 0.00 0.00 0.00 56 1017.0
20181018123805 62 321 1.0 2.0 0.00 0.00 0.00 56 1017.0
20181018123304 62 347 1.0 3.0 0.00 0.00 0.00 56 1016.9
20181018122804 63 354 1.0 3.0 0.00 0.00 0.00 56 1016.8
20181018122305 63 343 1.0 5.0 0.00 0.00 0.00 56 1016.7
20181018121805 62 336 1.0 5.0 0.00 0.00 0.00 56 1016.8
20181018121304 62 327 1.0 3.0 0.00 0.00 0.00 55 1016.8
20181018120804 63 350 1.0 3.0 0.00 0.00 0.00 55 1016.7
20181018120304 63 353 1.0 3.0 0.00 0.00 0.00 55 1016.7
20181018115805 63 356 1.0 3.0 0.00 0.00 0.00 55 1016.7
20181018115304 63 336 1.0 3.0 0.00 0.00 0.00 55 1016.6
20181018114804 63 326 0.0 1.0 0.00 0.00 0.00 54 1016.7
20181018114304 63 0 1.0 3.0 0.00 0.00 0.00 54 1016.7
20181018113805 62 343 1.0 3.0 0.00 0.00 0.00 54 1016.7
20181018113304 63 346 1.0 3.0 0.00 0.00 0.00 54 1016.5
20181018112805 63 354 0.0 1.0 0.00 0.00 0.00 54 1016.5
20181018112305 63 356 0.0 2.0 0.00 0.00 0.00 54 1016.5
20181018111804 63 0 1.0 3.0 0.00 0.00 0.00 54 1016.4
20181018111305 63 339 2.0 5.0 0.00 0.00 0.00 54 1016.4
20181018110805 63 347 0.0 2.0 0.00 0.00 0.00 54 1016.4
20181018110304 63 329 0.0 3.0 0.00 0.00 0.00 54 1016.4
20181018105804 63 357 0.0 2.0 0.00 0.00 0.00 53 1016.4
20181018105305 63 342 1.0 3.0 0.00 0.00 0.00 53 1016.4
20181018104804 63 339 0.0 0.0 0.00 0.00 0.00 53 1016.5
20181018104305 63 359 0.0 1.0 0.00 0.00 0.00 53 1016.4
20181018103804 63 343 0.0 0.0 0.00 0.00 0.00 53 1016.4
20181018103304 63 341 0.0 0.0 0.00 0.00 0.00 53 1016.4
20181018102804 63 347 0.0 1.0 0.00 0.00 0.00 53 1016.4
20181018102305 63 342 0.0 3.0 0.00 0.00 0.00 53 1016.4
20181018101804 63 344 0.0 1.0 0.00 0.00 0.00 53 1016.4
20181018101304 63 347 0.0 1.0 0.00 0.00 0.00 52 1016.4
20181018100805 64 336 2.0 3.0 0.00 0.00 0.00 52 1016.4
20181018100305 64 351 0.0 3.0 0.00 0.00 0.00 52 1016.4
20181018095804 64 347 1.0 3.0 0.00 0.00 0.00 51 1016.5
20181018095306 64 351 1.0 3.0 0.00 0.00 0.00 51 1016.5
20181018094804 64 329 1.0 3.0 0.00 0.00 0.00 51 1016.5
20181018094306 64 327 1.0 3.0 0.00 0.00 0.00 51 1016.5
20181018093805 64 347 1.0 3.0 0.00 0.00 0.00 51 1016.6
20181018093304 64 337 1.0 3.0 0.00 0.00 0.00 51 1016.6
20181018092805 64 40 1.0 3.0 0.00 0.00 0.00 51 1016.6
20181018092306 64 358 1.0 3.0 0.00 0.00 0.00 51 1016.7
20181018091805 63 353 1.0 3.0 0.00 0.00 0.00 51 1016.7
20181018091305 64 323 0.0 1.0 0.00 0.00 0.00 51 1016.7
20181018090804 64 64 1.0 3.0 0.00 0.00 0.00 51 1016.7
20181018090304 64 330 0.0 3.0 0.00 0.00 0.00 51 1016.7
20181018085805 64 10 0.0 3.0 0.00 0.00 0.00 51 1016.7
20181018085305 64 348 0.0 3.0 0.00 0.00 0.00 51 1016.8
20181018084804 64 342 0.0 1.0 0.00 0.00 0.00 51 1016.8
20181018084305 64 2 1.0 2.0 0.00 0.00 0.00 51 1016.9
20181018083804 64 345 0.0 3.0 0.00 0.00 0.00 51 1016.9
20181018083304 64 348 1.0 3.0 0.00 0.00 0.00 51 1016.9
20181018082804 64 339 1.0 3.0 0.00 0.00 0.00 51 1016.8
20181018082305 64 339 1.0 3.0 0.00 0.00 0.00 50 1016.9
20181018081805 64 345 1.0 3.0 0.00 0.00 0.00 50 1016.9
20181018081305 64 351 0.0 2.0 0.00 0.00 0.00 50 1016.9
20181018080805 64 347 1.0 10.0 0.00 0.00 0.00 50 1016.9
20181018080305 64 322 0.0 3.0 0.00 0.00 0.00 49 1017.0
20181018075805 64 353 1.0 3.0 0.00 0.00 0.00 49 1017.0
20181018075307 64 353 0.0 1.0 0.00 0.00 0.00 49 1017.0
20181018074804 64 343 0.0 3.0 0.00 0.00 0.00 49 1017.0
20181018074304 64 330 0.0 2.0 0.00 0.00 0.00 48 1017.0
20181018073805 64 335 1.0 3.0 0.00 0.00 0.00 48 1017.0
20181018073305 64 341 0.0 2.0 0.00 0.00 0.00 48 1017.0
20181018072804 64 336 1.0 2.0 0.00 0.00 0.00 48 1017.0
20181018072306 64 12 0.0 2.0 0.00 0.00 0.00 48 1016.9
20181018071805 64 353 1.0 3.0 0.00 0.00 0.00 47 1017.0
20181018071305 64 351 0.0 2.0 0.00 0.00 0.00 47 1017.0
20181018070822 64 341 0.0 1.0 0.00 0.00 0.00 47 1017.0
20181018070304 64 331 0.0 1.0 0.00 0.00 0.00 47 1017.0
20181018065805 64 349 0.0 0.0 0.00 0.00 0.00 47 1017.1
20181018065305 65 343 0.0 1.0 0.00 0.00 0.00 46 1017.2
20181018064805 65 328 0.0 3.0 0.00 0.00 0.00 46 1017.2
20181018064305 65 340 0.0 1.0 0.00 0.00 0.00 46 1017.2
20181018063805 65 312 0.0 1.0 0.00 0.00 0.00 46 1017.2
20181018063305 65 347 0.0 1.0 0.00 0.00 0.00 46 1017.2
20181018062805 65 12 0.0 0.0 0.00 0.00 0.00 46 1017.2
20181018062305 65 336 0.0 1.0 0.00 0.00 0.00 45 1017.3
20181018061804 65 346 0.0 1.0 0.00 0.00 0.00 45 1017.3
20181018061305 65 356 0.0 1.0 0.00 0.00 0.00 45 1017.3
20181018060805 65 345 0.0 2.0 0.00 0.00 0.00 44 1017.3
20181018060304 65 333 0.0 2.0 0.00 0.00 0.00 44 1017.3
20181018055805 65 351 0.0 2.0 0.00 0.00 0.00 45 1017.3
20181018055305 65 343 0.0 1.0 0.00 0.00 0.00 45 1017.4
20181018054805 65 346 0.0 3.0 0.00 0.00 0.00 44 1017.4
20181018054305 66 1 1.0 3.0 0.00 0.00 0.00 44 1017.4
20181018053804 65 332 1.0 3.0 0.00 0.00 0.00 44 1017.4
20181018053305 65 340 1.0 3.0 0.00 0.00 0.00 45 1017.3
20181018052805 65 9 0.0 2.0 0.00 0.00 0.00 45 1017.3
20181018052304 65 347 1.0 5.0 0.00 0.00 0.00 45 1017.3
20181018051805 65 344 0.0 3.0 0.00 0.00 0.00 46 1017.3
20181018051305 65 338 0.0 0.0 0.00 0.00 0.00 46 1017.3
20181018050806 65 326 0.0 1.0 0.00 0.00 0.00 46 1017.3
20181018050305 65 334 0.0 2.0 0.00 0.00 0.00 46 1017.3
20181018045804 65 335 0.0 1.0 0.00 0.00 0.00 46 1017.2
20181018045306 66 344 0.0 3.0 0.00 0.00 0.00 46 1017.1
20181018044805 66 10 0.0 2.0 0.00 0.00 0.00 47 1017.0
20181018044305 66 349 0.0 3.0 0.00 0.00 0.00 47 1017.0
20181018043805 66 336 0.0 1.0 0.00 0.00 0.00 47 1016.9
20181018043305 66 345 0.0 1.0 0.00 0.00 0.00 47 1016.9
20181018042805 66 344 0.0 0.0 0.00 0.00 0.00 46 1016.9
20181018042305 66 333 0.0 1.0 0.00 0.00 0.00 46 1016.8
20181018041807 67 333 0.0 1.0 0.00 0.00 0.00 45 1016.8
20181018041305 67 10 0.0 1.0 0.00 0.00 0.00 45 1016.8
20181018040805 67 341 1.0 2.0 0.00 0.00 0.00 44 1016.7
20181018040305 67 341 0.0 1.0 0.00 0.00 0.00 44 1016.6
20181018035805 67 344 0.0 3.0 0.00 0.00 0.00 44 1016.6
20181018035305 67 358 0.0 2.0 0.00 0.00 0.00 43 1016.6
20181018034805 67 4 0.0 2.0 0.00 0.00 0.00 43 1016.5
20181018034305 68 354 0.0 2.0 0.00 0.00 0.00 43 1016.5
20181018033805 68 13 0.0 3.0 0.00 0.00 0.00 42 1016.4
20181018033305 68 6 1.0 3.0 0.00 0.00 0.00 42 1016.4
20181018032804 68 344 1.0 3.0 0.00 0.00 0.00 42 1016.5
20181018032305 68 4 1.0 5.0 0.00 0.00 0.00 41 1016.5
20181018031805 68 335 0.0 3.0 0.00 0.00 0.00 41 1016.5
20181018031304 68 58 0.0 1.0 0.00 0.00 0.00 41 1016.4
20181018030805 69 77 0.0 3.0 0.00 0.00 0.00 41 1016.4
20181018030305 69 335 1.0 2.0 0.00 0.00 0.00 41 1016.4
20181018025805 69 15 1.0 2.0 0.00 0.00 0.00 41 1016.4
20181018025305 69 331 0.0 1.0 0.00 0.00 0.00 41 1016.4
20181018024805 69 341 0.0 3.0 0.00 0.00 0.00 40 1016.3
20181018024305 69 336 0.0 2.0 0.00 0.00 0.00 40 1016.2
20181018023805 69 345 0.0 1.0 0.00 0.00 0.00 40 1016.2
20181018023305 69 337 0.0 1.0 0.00 0.00 0.00 40 1016.2
20181018022805 70 330 0.0 2.0 0.00 0.00 0.00 39 1016.2
20181018022305 70 42 0.0 1.0 0.00 0.00 0.00 39 1016.2
20181018021806 70 346 1.0 3.0 0.00 0.00 0.00 39 1016.2
20181018021305 70 334 0.0 2.0 0.00 0.00 0.00 38 1016.1
20181018020804 70 359 1.0 3.0 0.00 0.00 0.00 38 1016.1
20181018020304 71 57 0.0 1.0 0.00 0.00 0.00 38 1016.0
20181018015805 71 347 0.0 1.0 0.00 0.00 0.00 38 1016.0
20181018015305 71 350 1.0 5.0 0.00 0.00 0.00 37 1016.0
20181018014805 71 0 0.0 3.0 0.00 0.00 0.00 37 1015.9
20181018014305 71 342 1.0 3.0 0.00 0.00 0.00 37 1015.9
20181018013805 71 0 1.0 5.0 0.00 0.00 0.00 36 1015.8
20181018013305 72 23 1.0 3.0 0.00 0.00 0.00 37 1015.7
20181018012805 72 0 0.0 3.0 0.00 0.00 0.00 36 1015.7
20181018012305 72 349 1.0 3.0 0.00 0.00 0.00 36 1015.6
20181018011805 72 355 0.0 3.0 0.00 0.00 0.00 36 1015.5
20181018011305 72 56 1.0 6.0 0.00 0.00 0.00 35 1015.5
20181018010806 73 347 3.0 6.0 0.00 0.00 0.00 35 1015.5
20181018010306 73 86 1.0 3.0 0.00 0.00 0.00 36 1015.5
20181018005805 73 343 2.0 6.0 0.00 0.00 0.00 34 1015.4
20181018005305 73 336 1.0 3.0 0.00 0.00 0.00 34 1015.5
20181018004806 73 342 1.0 3.0 0.00 0.00 0.00 34 1015.4
20181018004305 74 356 1.0 3.0 0.00 0.00 0.00 34 1015.4
20181018003804 74 329 2.0 6.0 0.00 0.00 0.00 34 1015.4
20181018003305 74 355 2.0 5.0 0.00 0.00 0.00 34 1015.3
20181018002805 75 111 1.0 2.0 0.00 0.00 0.00 34 1015.3
20181018002305 75 352 0.0 2.0 0.00 0.00 0.00 34 1015.3
20181018001806 74 346 2.0 7.0 0.00 0.00 0.00 33 1015.2
20181018001305 75 343 2.0 8.0 0.00 0.00 0.00 33 1015.3
20181018000805 75 349 2.0 7.0 0.00 0.00 0.00 33 1015.3
20181018000304 75 320 1.0 7.0 0.00 0.00 0.00 33 1015.3
20181017235805 75 109 1.0 3.0 0.00 0.00 0.00 33 1015.3
20181017235306 76 70 1.0 5.0 0.00 0.00 0.00 32 1015.2
20181017234805 76 15 1.0 5.0 0.00 0.00 0.00 33 1015.2
20181017234305 77 81 1.0 3.0 0.00 0.00 0.00 32 1015.1
20181017233805 77 69 1.0 5.0 0.00 0.00 0.00 32 1015.2
20181017233306 76 70 3.0 7.0 0.00 0.00 0.00 33 1015.2
20181017232805 76 342 2.0 6.0 0.00 0.00 0.00 32 1015.3
20181017232305 76 347 1.0 5.0 0.00 0.00 0.00 34 1015.3
20181017231805 76 13 0.0 3.0 0.00 0.00 0.00 34 1015.2
20181017231305 76 16 1.0 5.0 0.00 0.00 0.00 33 1015.3
20181017230805 76 335 1.0 5.0 0.00 0.00 0.00 33 1015.3
20181017230305 76 76 1.0 3.0 0.00 0.00 0.00 33 1015.3
20181017225805 76 6 2.0 6.0 0.00 0.00 0.00 32 1015.4
20181017225305 77 88 0.0 3.0 0.00 0.00 0.00 32 1015.4
20181017224802 77 59 2.0 7.0 0.00 0.00 0.00 31 1015.3
20181017224301 78 329 2.0 7.0 0.00 0.00 0.00 31 1015.4
20181017223801 79 94 2.0 8.0 0.00 0.00 0.00 30 1015.4
20181017223301 79 122 1.0 5.0 0.00 0.00 0.00 30 1015.5
20181017222801 79 39 1.0 7.0 0.00 0.00 0.00 30 1015.5
20181017222301 79 338 1.0 5.0 0.00 0.00 0.00 30 1015.5
20181017221802 79 30 2.0 7.0 0.00 0.00 0.00 30 1015.4
20181017221302 79 27 2.0 6.0 0.00 0.00 0.00 30 1015.5
20181017220801 79 42 2.0 9.0 0.00 0.00 0.00 30 1015.5
20181017220302 80 35 3.0 9.0 0.00 0.00 0.00 30 1015.4
20181017215802 80 118 3.0 10.0 0.00 0.00 0.00 30 1015.4
20181017215302 79 98 2.0 9.0 0.00 0.00 0.00 30 1015.4
20181017214802 80 28 2.0 9.0 0.00 0.00 0.00 30 1015.4
20181017214302 80 112 1.0 6.0 0.00 0.00 0.00 31 1015.4
20181017213802 79 123 2.0 7.0 0.00 0.00 0.00 31 1015.5
20181017213302 78 113 2.0 5.0 0.00 0.00 0.00 30 1015.5
20181017212801 78 84 1.0 6.0 0.00 0.00 0.00 31 1015.5
20181017212302 78 110 1.0 7.0 0.00 0.00 0.00 31 1015.5
20181017211801 78 113 2.0 5.0 0.00 0.00 0.00 31 1015.6
20181017211301 78 104 1.0 6.0 0.00 0.00 0.00 32 1015.6
20181017210805 78 104 2.0 9.0 0.00 0.00 0.00 31 1015.6
20181017210301 78 123 4.0 10.0 0.00 0.00 0.00 31 1015.7
20181017205801 78 115 2.0 5.0 0.00 0.00 0.00 32 1015.8
20181017205301 78 91 1.0 5.0 0.00 0.00 0.00 31 1015.7
20181017204802 78 80 2.0 7.0 0.00 0.00 0.00 31 1015.8
20181017204302 78 64 2.0 7.0 0.00 0.00 0.00 31 1016.0
20181017203801 79 70 2.0 5.0 0.00 0.00 0.00 30 1015.9
20181017203301 78 74 2.0 9.0 0.00 0.00 0.00 31 1015.9
20181017202801 78 113 2.0 6.0 0.00 0.00 0.00 32 1016.0
20181017202301 78 108 2.0 5.0 0.00 0.00 0.00 33 1016.1
20181017201802 78 119 3.0 6.0 0.00 0.00 0.00 32 1016.2
20181017201303 78 100 3.0 9.0 0.00 0.00 0.00 32 1016.2
20181017200802 78 125 3.0 8.0 0.00 0.00 0.00 31 1016.3
20181017200301 78 108 3.0 7.0 0.00 0.00 0.00 33 1016.4
20181017195802 77 122 2.0 9.0 0.00 0.00 0.00 34 1016.4
20181017195302 77 131 3.0 8.0 0.00 0.00 0.00 33 1016.5
20181017194801 77 27 1.0 3.0 0.00 0.00 0.00 33 1016.6
20181017194301 76 131 2.0 6.0 0.00 0.00 0.00 33 1016.8
20181017193802 76 115 3.0 9.0 0.00 0.00 0.00 33 1016.9
20181017193301 76 147 3.0 7.0 0.00 0.00 0.00 34 1016.9
20181017192802 76 127 1.0 6.0 0.00 0.00 0.00 34 1017.0
20181017192301 76 333 1.0 9.0 0.00 0.00 0.00 35 1017.1
20181017191802 76 108 5.0 9.0 0.00 0.00 0.00 33 1017.2
20181017191302 76 127 4.0 8.0 0.00 0.00 0.00 34 1017.2
20181017190802 76 109 3.0 6.0 0.00 0.00 0.00 34 1017.2
20181017190302 76 114 3.0 13.0 0.00 0.00 0.00 35 1017.3
20181017185802 75 68 1.0 3.0 0.00 0.00 0.00 34 1017.3
20181017185301 75 34 1.0 3.0 0.00 0.00 0.00 36 1017.4
20181017184801 75 62 1.0 3.0 0.00 0.00 0.00 36 1017.5
20181017184301 75 73 1.0 5.0 0.00 0.00 0.00 37 1017.6
20181017183802 74 123 1.0 5.0 0.00 0.00 0.00 37 1017.6
20181017183301 74 140 2.0 5.0 0.00 0.00 0.00 38 1017.7
20181017182802 74 0 1.0 3.0 0.00 0.00 0.00 38 1017.6
20181017182301 74 57 2.0 3.0 0.00 0.00 0.00 37 1017.8